Zurück zum Katalog

SL-12 DEB

LostMEO
NORAD 27931·DEBRIS·🇷🇺 Russia

Gestartet Sep 16, 1987 von Baikonur Cosmodrome

Loading…

Nächste Überflüge (nächste 24 Stunden)

TLE

VeraltetSource: Space-Track

Epoche: Jan 8, 2011, 04:54 UTC

1 27931U 87079AQ  11008.20450735 -.00000014  00000-0  10000-3 0  9999
2 27931  64.0475  30.1817 1852451  84.5786 296.2619  8.07373518220993

Verfolge SL-12 DEB in Echtzeit mit AllMySat

Download on the App Store